KOSEN 1
1 49402U 21102H   25315.03972885  .00010591  00000-0  45412-3 0  9998
2 49402  97.3522 356.5982 0013221 255.8211 104.1558 15.22844834220773
HO-113
1 50466U 21131B   25315.26664081  .00001163  00000-0  37511-3 0  9999
2 50466  98.5068  43.8460 0004731  45.2695 314.8878 14.41044488203721
SNUGLITE 2
1 52899U 22065F   25314.40075026  .00002321  00000-0  45496-3 0  9996
2 52899  98.1907  95.1241 0007319 359.9473   0.1727 14.63694318178986
UmKA 1 (RS40S)
1 57172U 23091G   25315.29641313  .00010912  00000-0  54560-3 0  9998
2 57172  97.5385   9.9033 0014392 153.2144 206.9836 15.17527667130920
CubeBel-2 (EU11S)
1 57175U 23091K   25315.25916458  .00017730  00000-0  75728-3 0  9996
2 57175  97.5380  12.0846 0011795 156.1746 204.0038 15.22875542131062
SONATE-2
1 59112U 24043Q   25315.28366585  .00037708  00000-0  86010-3 0  9993
2 59112  97.5317  90.4199 0008822 279.6029  80.4221 15.42769046 94126
MO-122
1 60209U 24125G   25315.11574347  .00037415  00000-0  82823-3 0  9995
2 60209  97.2566 165.5191 0014397 304.9807  55.0089 15.43593186 75720
GRBBeta
1 60237U 24128C   25315.24879066  .00008660  00000-0  61140-3 0  9998
2 60237  61.9906 259.6822 0057002  90.0307 270.7317 15.04287687 73452
Curium One
1 60242U 24128H   25315.30935563  .00015421  00000-0  97135-3 0  9992
2 60242  61.9796 255.0619 0056827  86.8386 273.9207 15.08036127 73541
ROBUSTA-3A
1 60243U 24128J   25315.23356227  .00015461  00000-0  99025-3 0  9993
2 60243  61.9871 256.7288 0056691  84.2723 276.4830 15.07433092 73510
CatSat
1 60246U 24125J   25315.14049115  .00042211  00000-0  11224-2 0  9995
2 60246  97.2376 162.9230 0034365 261.6700  98.0648 15.37504049 73665
HYPERVIEW-1G (RS66S)
1 61772U 24199AP  25315.28978089  .00055608  00000-0  11913-2 0  9996
2 61772  97.3246 184.4015 0011578   7.1038 353.0373 15.44514218100752
AO-123
1 61781U 24199AY  25315.31041611  .00014257  00000-0  47564-3 0  9999
2 61781  97.3280 181.1192 0015608  15.2626 344.9083 15.31055431100537
ZIMSAT 2
1 61783U 24199BA  25315.30478508  .00154280  00000-0  18116-2 0  9990
2 61783  97.3160 187.0049 0008620   8.2203 351.9194 15.60916626104080
HADES-R (SO-124)
1 62690U 25009CK  25315.26706146  .00141427  00000-0  26204-2 0  9992
2 62690  97.3934  36.9276 0003178 251.6330 108.4575 15.48467430 45890
HYDRA-T
1 62692U 25009CM  25315.20717886  .00146520  00000-0  26314-2 0  9992
2 62692  97.3927  37.0067 0002990 245.6073 114.4866 15.49343908 45896
JINJUSat 1B
1 63210U 25052A   25315.24443033  .00023748  00000-0  94571-3 0  9998
2 63210  97.4204 207.6280 0005463 116.7008 243.4789 15.25224057 36780
NUSHSAT 1
1 63211U 25052B   25315.25910591  .00027870  00000-0  10817-2 0  9998
2 63211  97.4184 207.7262 0005313 120.0801 240.0964 15.26050276 36792
TEVEL2-4
1 63213U 25052D   25315.24723701  .00025697  00000-0  10150-2 0  9999
2 63213  97.4111 207.3294 0004063 126.7715 233.3897 15.25486109 36789
TEVEL2-5
1 63214U 25052E   25315.18573070  .00025457  00000-0  10075-2 0  9995
2 63214  97.4106 207.2595 0004019 127.3016 232.8589 15.25425088 36779
TEVEL2-6
1 63215U 25052F   25315.19205125  .00025309  00000-0  10031-2 0  9998
2 63215  97.4108 207.2553 0004029 127.9234 232.2369 15.25376343 36774
TEVEL2-1
1 63217U 25052H   25315.22831385  .00024434  00000-0  97714-3 0  9999
2 63217  97.4082 207.1278 0003738 136.5381 223.6152 15.25083438 36779
TEVEL2-3
1 63218U 25052J   25315.22790431  .00024099  00000-0  96338-3 0  9994
2 63218  97.4083 207.1317 0003719 138.7954 221.3565 15.25099114 36775
TEVEL2-2
1 63219U 25052K   25315.22909627  .00024213  00000-0  96837-3 0  9996
2 63219  97.4084 207.1288 0003715 138.5429 221.6092 15.25083087 36775
TEVEL2-9
1 63237U 25052AD  25315.22769738  .00023040  00000-0  96083-3 0  9993
2 63237  97.4146 206.8769 0006688 175.0215 185.1090 15.23670853 36745
TEVEL2-7
1 63238U 25052AE  25315.23873851  .00022792  00000-0  95416-3 0  9999
2 63238  97.4151 206.8678 0006699 175.1638 184.9665 15.23542687 36741
TEVEL2-8
1 63239U 25052AF  25315.24382447  .00023481  00000-0  98362-3 0  9996
2 63239  97.4150 206.8589 0006742 176.0082 184.1210 15.23515499 36743
HYDRA-W
1 63490U 25052BL  25315.22553554  .00076757  00000-0  21693-2 0  9998
2 63490  97.4063 208.6819 0008273 160.4091 199.7472 15.36020813 36870
HADES-ICM (SO-125)
1 63492U 25052BN  25315.18636300  .00073097  00000-0  21605-2 0  9993
2 63492  97.4094 208.4494 0008274 166.5695 193.5770 15.34627593 36858
Dragonfly
1 65729U 98067XH  25315.16307016  .00115355  00000-0  12885-2 0  9995
2 65729  51.6309 296.1866 0004536 108.8398 251.3089 15.61883644  8213
RSP-03
1 65732U 98067XL  25315.24689091  .00112693  00000-0  13254-2 0  9997
2 65732  51.6310 295.9961 0006264  87.0785 273.0925 15.60547116  8232
GHS-01
1 65733U 98067XM  25315.21372585  .00153732  00000-0  16422-2 0  9991
2 65733  51.6315 295.7771 0005044 106.2175 253.9374 15.62879303  8230
BOTAN
1 65942U 98067XP  25315.25001011  .00102013  00000-0  14362-2 0  9997
2 65942  51.6318 297.5160 0004820  55.3757 304.7688 15.55818540  4954
